User: anonymous   Login
Location: Castelbiague
(43.0361°N, 0.9246°E)
Time: 03:51:41
(UTC+00:00)
Language:

Cosmos 1980 - Orbit

View from above orbital plane
View from above orbital plane
View from above satellite
View from above satellite

Ground track
Ground track

The orbit data is extracted from the following two-line orbital elements,

1 19649U 88102A   21267.70977676 -.00000194  00000-0 -75895-4 0  9999
2 19649  71.0031  30.3342 0002941 108.3609 251.7833 14.14739179695006
Epoch (UTC): 24 September 2021 17:02:04
Eccentricity: 0.0002941
inclination: 71.0031°
perigee height: 841 km
apogee height: 845 km
right ascension of ascending node: 30.3342°
argument of perigee: 108.3609°
revolutions per day: 14.14739179
mean anomaly at epoch: 251.7833°
orbit number at epoch: 69500

The dashed part of the orbit path shows where the satellite is in the earth's shadow,  

DLR